Overview Statistics Trail Chart Weather Telemetry Raw packets
 

This is the latest recevied weather packets stored in our database for station/object K7FLA. If no packets are shown the sender has not sent any weather packets the latest 10 day(s).

<< 40 41 42 43 44 45 46 >>
Time Temp. Humidity Pressure Rain* Wind** Luminosity Snow
1788402080 23.33° C 33% 1095.9 hPa 0 mm - 1 W/m² -
1788401779 23.33° C 32% 1096 hPa 0 mm - 2 W/m² -
1788401474 23.33° C 31% 1095.9 hPa 0 mm - 4 W/m² -
1788401170 23.89° C 31% 1095.9 hPa 0 mm - 7 W/m² -
1788400869 23.89° C 30% 1095.7 hPa 0 mm - 10 W/m² -
1788400565 23.89° C 29% 1095.6 hPa 0 mm - 13 W/m² -
1788400261 24.44° C 30% 1095.6 hPa 0 mm - 16 W/m² -
1788399961 24.44° C 29% 1095.5 hPa 0 mm - 19 W/m² -
1788399687 25° C 29% 1095.6 hPa 0 mm - 21 W/m² -
1788399355 25° C 28% 1095.5 hPa 0 mm - 23 W/m² -
1788399050 25.56° C 26% 1095.5 hPa 0 mm - 25 W/m² -
1788398749 25.56° C 25% 1095.6 hPa 0 mm - 27 W/m² -
1788398448 26.11° C 23% 1095.4 hPa 0 mm - 29 W/m² -
1788398149 26.11° C 24% 1095.5 hPa 0 mm - 36 W/m² -
1788397848 26.67° C 22% 1095.3 hPa 0 mm - 50 W/m² -
1788397544 26.67° C 22% 1095.3 hPa 0 mm - 59 W/m² -
1788397242 27.22° C 21% 1095.4 hPa 0 mm - 69 W/m² -
1788396937 27.22° C 20% 1095.3 hPa 0 mm - 76 W/m² -
1788396633 27.78° C 21% 1095 hPa 0 mm - 83 W/m² -
1788396333 27.78° C 20% 1095.3 hPa 0 mm - 100 W/m² -
1788396028 28.33° C 20% 1095.1 hPa 0 mm - 103 W/m² -
1788395723 28.33° C 20% 1095.1 hPa 0 mm - 112 W/m² -
1788395419 28.89° C 21% 1095 hPa 0 mm - 133 W/m² -
1788395118 28.89° C 20% 1095.1 hPa 0 mm - 149 W/m² -
1788394813 28.89° C 20% 1095.2 hPa 0 mm - 157 W/m² -

* Rain latest hour (hover to see other rain measurements)
** Current wind speed in m/s (hover to see current wind gust speed)